Waarnemingen

Advertentie
Mijn weer
Oostende Airport, België (6407): temperatuur & dauwpunt: 19.04.2018 02:00:00 - 25.04.2018 02:00:00 (CEST)Oostende Airport, België (6407): windsnelheid & windstoten: 19.04.2018 02:00:00 - 25.04.2018 02:00:00 (CEST)Oostende Airport, België (6407): windrichting: 19.04.2018 02:00:00 - 25.04.2018 02:00:00 (CEST)Oostende Airport, België (6407): luchtdruk: 19.04.2018 02:00:00 - 25.04.2018 02:00:00 (CEST)Oostende Airport, België (6407): zicht: 19.04.2018 02:00:00 - 25.04.2018 02:00:00 (CEST)
Datum & Tijd tt [°C] td [°C] ff [km/u] ff [kn] fx [km/u] fx [kn] dd ppp [hPa] vv [km]
25.04.2018 02:00:00 12,2 10,2 31 17 - - ZW 1009,8 10
25.04.2018 01:00:00 12,5 9,5 29 16 43 23 ZW 1010,2 10
25.04.2018 00:00:00 12,4 9,4 24 13 40 21 ZW 1011,0 10
24.04.2018 23:00:00 12,3 9,9 28 15 - - ZW 1011,7 10
24.04.2018 22:00:00 12,0 9,8 22 12 43 23 ZW 1012,5 10
24.04.2018 21:00:00 13,1 9,6 22 12 36 19 WZW 1013,0 10
24.04.2018 20:00:00 13,1 9,4 22 12 - - ZW 1013,5 10
24.04.2018 19:00:00 13,7 9,3 26 14 47 25 ZW 1014,1 10
24.04.2018 18:00:00 14,5 8,9 31 17 46 25 ZW 1014,7 10
24.04.2018 17:00:00 14,6 9,2 26 14 - - ZZW 1015,2 10
24.04.2018 16:00:00 14,4 9,4 26 14 35 19 ZW 1016,0 10
24.04.2018 15:00:00 14,0 9,4 26 14 32 18 ZW 1016,8 10
24.04.2018 14:00:00 12,8 9,6 22 12 - - W 1017,4 15
24.04.2018 13:00:00 12,5 9,3 22 12 32 18 W 1017,9 10
24.04.2018 12:00:00 12,7 9,3 24 13 36 19 WZW 1017,7 10
24.04.2018 11:00:00 12,4 9,4 24 13 - - WZW 1017,6 10
24.04.2018 10:00:00 10,8 8,7 22 12 29 16 ZW 1017,4 7
24.04.2018 09:00:00 10,4 8,2 21 11 35 19 ZW 1017,2 8
24.04.2018 08:00:00 10,2 8,2 21 11 - - WZW 1016,7 10
24.04.2018 07:00:00 10,2 8,0 28 15 47 25 WZW 1016,8 10
24.04.2018 06:00:00 9,8 6,9 18 10 29 16 ZW 1016,6 10
24.04.2018 05:00:00 9,3 6,3 21 11 - - ZW 1016,6 10
24.04.2018 04:00:00 8,7 5,8 13 7 18 10 ZZW 1016,7 10
24.04.2018 03:00:00 7,7 5,4 13 7 25 14 ZZW 1017,0 10
24.04.2018 02:00:00 7,9 5,5 15 8 - - ZZW 1017,1 10
24.04.2018 01:00:00 7,8 5,2 13 7 22 12 ZZW 1017,5 10
24.04.2018 00:00:00 7,7 5,3 15 8 26 14 ZZW 1017,8 10
23.04.2018 23:00:00 8,0 5,4 15 8 - - ZZW 1018,0 10
23.04.2018 22:00:00 9,1 5,9 22 12 35 19 ZW 1018,2 10
23.04.2018 21:00:00 10,0 6,0 24 13 40 21 ZW 1017,6 10
23.04.2018 20:00:00 11,5 6,2 29 16 - - ZW 1017,9 20
23.04.2018 19:00:00 12,9 6,6 29 16 39 21 ZW 1017,7 20
23.04.2018 18:00:00 13,7 7,0 25 14 36 19 ZW 1017,7 20
23.04.2018 17:00:00 13,1 8,1 25 14 - - WZW 1018,1 20
23.04.2018 16:00:00 12,8 8,7 29 16 40 21 W 1018,3 20
23.04.2018 15:00:00 13,2 8,9 32 18 40 21 W 1018,3 20
23.04.2018 14:00:00 11,8 8,1 25 14 - - W 1018,0 20
23.04.2018 13:00:00 12,4 7,5 22 12 36 19 W 1018,1 20
23.04.2018 12:00:00 11,5 8,0 29 16 35 19 W 1017,9 20
23.04.2018 11:00:00 10,9 7,5 29 16 - - W 1017,5 15
23.04.2018 10:00:00 10,8 7,6 29 16 40 21 W 1016,9 10
23.04.2018 09:00:00 10,5 7,9 26 14 35 19 W 1016,2 15
23.04.2018 08:00:00 10,1 8,1 18 10 - - WZW 1015,5 7
23.04.2018 07:00:00 7,5 6,1 14 8 25 14 ZW 1015,1 6
23.04.2018 06:00:00 10,0 8,3 18 10 29 16 WZW 1014,5 9
23.04.2018 05:00:00 10,2 8,2 14 8 - - WZW 1014,3 10
23.04.2018 04:00:00 10,6 8,8 22 12 31 17 WZW 1013,8 20
23.04.2018 03:00:00 11,1 8,6 21 11 29 16 WZW 1013,4 10
23.04.2018 02:00:00 11,8 7,7 21 11 - - WZW 1013,1 10
23.04.2018 01:00:00 10,9 5,2 16 9 25 14 ZW 1012,7 10
23.04.2018 00:00:00 12,2 5,6 16 9 31 17 ZW 1012,3 10
22.04.2018 23:00:00 14,4 8,3 22 12 - - WZW 1012,0 10
22.04.2018 22:00:00 15,4 9,0 16 9 31 17 ZW 1011,5 10
22.04.2018 21:00:00 15,8 10,2 18 10 25 14 ZW 1010,9 10
22.04.2018 20:00:00 16,2 10,0 22 12 - - WZW 1010,8 15
22.04.2018 19:00:00 18,1 11,0 22 12 36 19 WZW 1010,3 15
22.04.2018 18:00:00 17,7 9,8 29 16 35 19 W 1010,4 15
22.04.2018 17:00:00 18,3 11,7 25 14 - - W 1010,5 15
22.04.2018 16:00:00 17,7 12,8 22 12 29 16 W 1010,7 15
22.04.2018 15:00:00 19,1 13,5 22 12 25 14 W 1010,9 11
22.04.2018 14:00:00 16,3 12,2 18 10 - - NW 1010,9 8
22.04.2018 13:00:00 23,0 14,6 18 10 29 16 ZZW 1010,7 10
22.04.2018 12:00:00 22,0 14,7 16 9 25 14 Z 1011,1 9
22.04.2018 11:00:00 20,0 14,1 15 8 - - ZZO 1011,5 6
22.04.2018 10:00:00 17,5 13,6 13 7 26 14 ZZO 1011,6 6
22.04.2018 09:00:00 14,6 11,8 5 3 22 12 OZO 1011,7 6
22.04.2018 08:00:00 13,5 10,7 14 8 - - ZO 1012,0 6
22.04.2018 07:00:00 14,2 10,7 14 8 29 16 OZO 1012,4 6
22.04.2018 06:00:00 11,6 9,3 4 2 25 14 ZO 1014,0 9
22.04.2018 05:00:00 12,5 9,3 14 8 - - WZW 1014,8 12
22.04.2018 04:00:00 13,1 9,6 11 6 18 10 O 1014,6 12
22.04.2018 03:00:00 14,2 9,9 14 8 22 12 O 1015,2 10
22.04.2018 02:00:00 14,5 10,0 11 6 - - O 1016,1 10
22.04.2018 01:00:00 14,2 10,1 13 7 18 10 O 1016,2 10
22.04.2018 00:00:00 14,7 10,4 13 7 14 8 O 1016,7 10
21.04.2018 23:00:00 14,4 10,3 9 5 - - O 1017,5 10
21.04.2018 22:00:00 14,6 10,1 9 5 18 10 ONO 1018,1 10
21.04.2018 21:00:00 16,8 10,8 13 7 14 8 ONO 1018,1 10
21.04.2018 20:00:00 17,4 11,1 11 6 - - NNO 1018,5 15
21.04.2018 19:00:00 19,3 12,0 11 6 22 12 NO 1019,0 15
21.04.2018 18:00:00 18,7 11,3 14 8 25 14 NNO 1019,7 15
21.04.2018 17:00:00 18,6 12,0 18 10 - - NNO 1020,3 12
21.04.2018 16:00:00 19,1 12,4 14 8 22 12 NNO 1020,9 12
21.04.2018 15:00:00 18,1 12,1 15 8 18 10 N 1021,4 12
21.04.2018 14:00:00 19,2 12,6 11 6 - - N 1021,9 10
21.04.2018 13:00:00 19,3 12,6 9 5 14 8 NO 1022,6 9
21.04.2018 12:00:00 16,3 11,4 11 6 14 8 N 1023,1 9
21.04.2018 11:00:00 16,5 11,3 8 4 - - OZO 1023,2 9
21.04.2018 10:00:00 14,6 10,0 9 5 18 10 O 1023,2 8
21.04.2018 09:00:00 12,8 9,5 9 5 14 8 O 1023,2 6
21.04.2018 08:00:00 10,2 8,2 7 4 - - ONO 1023,1 4,0
21.04.2018 07:00:00 9,4 7,3 7 4 14 8 ONO 1022,9 4,0
21.04.2018 06:00:00 9,7 7,5 9 5 18 10 NO 1022,7 4,5
21.04.2018 05:00:00 9,7 7,6 11 6 - - NO 1023,1 4,5
21.04.2018 04:00:00 9,7 7,6 4 2 11 6 N 1023,0 3,2
21.04.2018 03:00:00 10,1 7,0 4 2 11 6 NO 1023,2 4,5
21.04.2018 02:00:00 9,6 7,3 4 2 - - - 1023,6 4,5
21.04.2018 01:00:00 10,3 6,8 8 4 11 6 NNO 1023,7 4,5
21.04.2018 00:00:00 10,4 7,2 5 3 18 10 NO 1023,8 4,5
20.04.2018 23:00:00 10,3 7,6 13 7 - - N 1024,0 4,5
20.04.2018 22:00:00 12,3 8,7 15 8 18 10 NO 1023,8 5
20.04.2018 21:00:00 13,9 9,7 8 4 15 8 NO 1023,3 5
20.04.2018 20:00:00 13,7 10,0 11 6 - - NNO 1023,4 8
20.04.2018 19:00:00 15,0 9,4 18 10 25 14 NNW 1023,4 12
20.04.2018 18:00:00 17,4 9,3 18 10 25 14 WNW 1023,4 17
20.04.2018 17:00:00 17,6 10,3 15 8 - - W 1023,6 14
20.04.2018 16:00:00 18,0 9,8 11 6 22 12 WNW 1023,9 14
20.04.2018 15:00:00 18,9 10,9 15 8 22 12 W 1024,1 14
20.04.2018 14:00:00 18,4 10,7 18 10 - - W 1024,2 10
20.04.2018 13:00:00 17,4 11,1 16 9 26 14 W 1024,4 10
20.04.2018 12:00:00 17,6 11,0 21 11 25 14 W 1024,2 8
20.04.2018 11:00:00 19,7 14,2 5 3 - - ZW 1023,6 7
20.04.2018 10:00:00 17,3 13,0 8 4 8 4 ZW 1023,2 6
20.04.2018 09:00:00 15,0 11,0 4 2 - - - - 4,3
20.04.2018 08:00:00 11,7 9,6 4 2 - - ZZO 1023,0 3,2
20.04.2018 07:00:00 11,0 8,6 4 2 14 8 NW 1022,8 3,5
20.04.2018 06:00:00 12,0 9,1 7 4 14 8 WNW 1022,7 7
20.04.2018 05:00:00 11,4 9,4 7 4 - - ZZO 1022,8 8
20.04.2018 04:00:00 11,9 10,0 2 1 7 4 ZZO 1023,0 10
20.04.2018 03:00:00 12,6 9,5 0 0 7 4 N 1023,3 10
20.04.2018 02:00:00 13,2 10,1 4 2 - - Z 1023,7 10
20.04.2018 01:00:00 13,9 10,3 4 2 7 4 OZO 1023,6 10
20.04.2018 00:00:00 14,7 11,4 8 4 8 4 ZZO 1023,8 10
19.04.2018 23:00:00 15,9 10,9 4 2 - - ZZO 1024,0 12
19.04.2018 22:00:00 17,7 11,3 4 2 4 2 OZO 1024,0 12
19.04.2018 21:00:00 20,7 9,2 4 2 11 6 ONO 1023,7 15
19.04.2018 20:00:00 22,2 11,6 7 4 - - NO 1023,6 15
19.04.2018 19:00:00 22,8 11,5 9 5 22 12 NNO 1023,8 10
19.04.2018 18:00:00 23,0 11,0 13 7 14 8 N 1024,0 10
19.04.2018 17:00:00 23,1 10,3 11 6 - - N 1024,3 10
19.04.2018 16:00:00 22,8 11,8 11 6 18 10 NNW 1024,6 10
19.04.2018 15:00:00 25,1 11,2 11 6 22 12 ZZO 1024,9 10
19.04.2018 14:00:00 24,0 11,3 15 8 - - ZZO 1025,0 10
19.04.2018 13:00:00 22,4 11,6 15 8 25 14 ZZO 1025,3 10
19.04.2018 12:00:00 21,0 10,0 16 9 25 14 ZZO 1025,6 10
19.04.2018 11:00:00 19,6 10,6 15 8 - - ZZO 1025,5 10
19.04.2018 10:00:00 18,0 10,0 15 8 22 12 ZZO 1025,6 10
19.04.2018 09:00:00 15,2 8,8 5 3 14 8 OZO 1025,8 10
19.04.2018 08:00:00 13,4 8,0 9 5 - - O 1025,5 10
19.04.2018 07:00:00 12,3 6,6 7 4 11 6 O 1025,4 15
19.04.2018 06:00:00 12,5 6,2 8 4 11 6 O 1025,5 10
19.04.2018 05:00:00 12,3 6,8 11 6 - - O 1025,8 15
19.04.2018 04:00:00 12,9 7,2 11 6 14 8 O 1025,8 15
19.04.2018 03:00:00 13,6 7,7 8 4 22 12 OZO 1026,1 10
19.04.2018 02:00:00 14,7 7,6 15 8 - - O 1026,4 10

tt = temperatuur
td = dauwpunt
ff = windsnelheid
fx = windstoten
dd = windrichting
ppp = luchtdruk
vv = zicht

Weerstations in de omgeving